QPF
0.07 0.07 0.07 0.08 0.07 0.07 0.06 0.07 0.07 0.08 0.07 0.04 0.03 0.03 0.02 0.02 0.02 0.02 0.01 0.01 0.01 0.00 0.00 0.00 0.00 0.00 0.00 0.00 0.01 0.01 0.01 0.01 0.01 0.01 0.01 0.02 0.02 0.02
0.08 0.08 0.07 0.08 0.09 0.07 0.07 0.07 0.06 0.07 0.06 0.04 0.03 0.02 0.03 0.03 0.02 0.02 0.01 0.01 0.01 0.00 0.00 0.00 0.00 0.00 0.00 0.00 0.00 0.00 0.01 0.01 0.01 0.01 0.01 0.01 0.02 0.02
0.10 0.10 0.10 0.09 0.10 0.10 0.09 0.08 0.07 0.08 0.08 0.05 0.03 0.03 0.04 0.04 0.03 0.03 0.02 0.01 0.01 0.01 0.00 0.00 0.00 0.00 0.00 0.01 0.01 0.01 0.00 0.01 0.01 0.01 0.01 0.01 0.01 0.01
0.07 0.08 0.09 0.09 0.10 0.10 0.10 0.09 0.07 0.07 0.08 0.07 0.05 0.04 0.05 0.05 0.04 0.03 0.02 0.01 0.01 0.01 0.01 0.00 0.00 0.00 0.00 0.00 0.01 0.01 0.01 0.01 0.01 0.01 0.01 0.01 0.01 0.02
0.05 0.06 0.06 0.08 0.09 0.09 0.09 0.08 0.08 0.07 0.06 0.06 0.05 0.04 0.04 0.04 0.04 0.03 0.03 0.02 0.01 0.01 0.01 0.01 0.01 0.01 0.01 0.01 0.01 0.01 0.01 0.01 0.01 0.01 0.01 0.01 0.01 0.02
0.04 0.05 0.05 0.06 0.07 0.08 0.09 0.09 0.09 0.09 0.08 0.07 0.06 0.04 0.04 0.04 0.04 0.03 0.03 0.02 0.01 0.01 0.01 0.01 0.01 0.01 0.01 0.01 0.01 0.01 0.01 0.01 0.02 0.02 0.02 0.02 0.02 0.02
0.05 0.04 0.04 0.05 0.05 0.06 0.08 0.08 0.09 0.09 0.10 0.10 0.08 0.06 0.05 0.05 0.04 0.03 0.03 0.02 0.02 0.01 0.02 0.01 0.02 0.02 0.01 0.01 0.02 0.02 0.02 0.02 0.03 0.03 0.03 0.03 0.03 0.02
0.05 0.05 0.05 0.05 0.04 0.05 0.06 0.07 0.07 0.07 0.07 0.07 0.07 0.06 0.04 0.04 0.03 0.03 0.03 0.03 0.02 0.02 0.02 0.02 0.02 0.02 0.02 0.02 0.03 0.03 0.03 0.03 0.03 0.03 0.03 0.03 0.03 0.03
0.06 0.06 0.05 0.05 0.06 0.05 0.06 0.07 0.07 0.06 0.05 0.05 0.05 0.04 0.04 0.03 0.04 0.04 0.03 0.03 0.02 0.02 0.02 0.03 0.02 0.02 0.02 0.02 0.03 0.03 0.03 0.03 0.03 0.03 0.04 0.03 0.04 0.04
0.08 0.07 0.07 0.07 0.07 0.08 0.07 0.07 0.07 0.07 0.06 0.05 0.05 0.04 0.04 0.04 0.05 0.05 0.04 0.04 0.03 0.02 0.02 0.02 0.02 0.02 0.02 0.02 0.03 0.03 0.03 0.03 0.04 0.04 0.04 0.04 0.04 0.04
0.08 0.08 0.08 0.08 0.08 0.09 0.08 0.07 0.07 0.06 0.07 0.07 0.07 0.06 0.06 0.07 0.07 0.08 0.08 0.07 0.06 0.04 0.02 0.02 0.02 0.02 0.02 0.02 0.03 0.03 0.04 0.05 0.05 0.05 0.05 0.05 0.05 0.06
0.10 0.10 0.09 0.09 0.11 0.10 0.08 0.08 0.08 0.06 0.07 0.08 0.09 0.08 0.06 0.07 0.08 0.07 0.06 0.06 0.05 0.04 0.03 0.02 0.02 0.03 0.04 0.03 0.03 0.03 0.04 0.06 0.06 0.06 0.06 0.05 0.05 0.06
0.13 0.12 0.12 0.13 0.13 0.12 0.10 0.09 0.08 0.07 0.07 0.08 0.08 0.08 0.07 0.06 0.06 0.06 0.06 0.05 0.05 0.04 0.03 0.02 0.02 0.03 0.03 0.03 0.03 0.03 0.04 0.05 0.06 0.06 0.06 0.06 0.05 0.05
0.14 0.12 0.12 0.14 0.14 0.13 0.13 0.12 0.10 0.09 0.08 0.09 0.09 0.09 0.07 0.06 0.05 0.05 0.05 0.05 0.05 0.04 0.04 0.04 0.04 0.04 0.05 0.05 0.04 0.04 0.04 0.05 0.06 0.06 0.06 0.06 0.05 0.05
0.14 0.14 0.13 0.14 0.16 0.15 0.14 0.13 0.12 0.10 0.09 0.09 0.08 0.07 0.05 0.05 0.05 0.05 0.06 0.06 0.05 0.05 0.05 0.05 0.05 0.05 0.06 0.05 0.05 0.04 0.05 0.06 0.05 0.05 0.05 0.05 0.05 0.04
0.13 0.14 0.15 0.17 0.19 0.18 0.16 0.15 0.12 0.11 0.10 0.08 0.07 0.06 0.05 0.06 0.06 0.07 0.07 0.07 0.08 0.07 0.06 0.05 0.05 0.05 0.05 0.05 0.05 0.05 0.05 0.06 0.06 0.05 0.05 0.05 0.04 0.03
0.13 0.15 0.19 0.21 0.22 0.20 0.17 0.15 0.13 0.12 0.10 0.07 0.06 0.06 0.06 0.06 0.07 0.07 0.07 0.07 0.07 0.07 0.06 0.06 0.05 0.05 0.05 0.05 0.05 0.05 0.05 0.06 0.06 0.05 0.05 0.05 0.05 0.03
0.12 0.15 0.18 0.19 0.18 0.16 0.15 0.14 0.12 0.11 0.08 0.07 0.06 0.06 0.05 0.06 0.07 0.07 0.07 0.08 0.08 0.07 0.06 0.06 0.06 0.06 0.06 0.06 0.05 0.05 0.05 0.06 0.06 0.05 0.05 0.05 0.05 0.04
0.09 0.11 0.14 0.15 0.15 0.14 0.13 0.13 0.12 0.09 0.08 0.07 0.06 0.05 0.06 0.07 0.06 0.06 0.07 0.08 0.07 0.07 0.06 0.06 0.06 0.06 0.06 0.06 0.07 0.06 0.06 0.06 0.06 0.06 0.05 0.04 0.05 0.05
0.07 0.08 0.10 0.13 0.14 0.13 0.11 0.11 0.11 0.10 0.09 0.08 0.07 0.07 0.07 0.07 0.07 0.07 0.07 0.07 0.07 0.07 0.07 0.07 0.06 0.06 0.06 0.07 0.08 0.09 0.08 0.07 0.06 0.06 0.05 0.05 0.05 0.06
0.05 0.06 0.09 0.12 0.14 0.14 0.11 0.10 0.10 0.09 0.09 0.09 0.09 0.09 0.08 0.08 0.08 0.07 0.07 0.07 0.07 0.07 0.07 0.06 0.07 0.07 0.07 0.08 0.08 0.09 0.09 0.08 0.06 0.05 0.04 0.04 0.04 0.05
0.04 0.05 0.07 0.10 0.13 0.14 0.12 0.09 0.09 0.09 0.08 0.08 0.09 0.09 0.09 0.09 0.08 0.08 0.07 0.07 0.07 0.07 0.07 0.07 0.07 0.08 0.08 0.07 0.07 0.07 0.08 0.08 0.08 0.06 0.04 0.03 0.03 0.04
0.05 0.05 0.06 0.08 0.11 0.13 0.13 0.11 0.09 0.08 0.08 0.08 0.08 0.07 0.08 0.08 0.08 0.07 0.07 0.07 0.08 0.08 0.07 0.08 0.07 0.07 0.07 0.07 0.07 0.06 0.06 0.06 0.06 0.06 0.05 0.03 0.03 0.04
MSLP
1010.83 1011.15 1011.40 1011.55 1011.59 1011.54 1011.39 1011.18 1010.91 1010.60 1010.26 1009.89 1009.51 1009.12 1008.72 1008.33 1007.97 1007.65 1007.39 1007.19 1007.06 1007.00 1006.97 1006.96 1006.94 1006.91 1006.85 1006.76 1006.67 1006.59 1006.57 1006.64 1006.82 1007.13 1007.56 1008.11 1008.74 1009.42
1010.26 1010.54 1010.75 1010.88 1010.92 1010.88 1010.77 1010.59 1010.37 1010.10 1009.78 1009.43 1009.03 1008.60 1008.15 1007.71 1007.28 1006.90 1006.58 1006.34 1006.18 1006.09 1006.05 1006.03 1006.00 1005.96 1005.88 1005.77 1005.65 1005.55 1005.51 1005.57 1005.75 1006.07 1006.52 1007.11 1007.80 1008.54
1009.82 1010.04 1010.21 1010.30 1010.34 1010.30 1010.22 1010.08 1009.90 1009.67 1009.38 1009.04 1008.64 1008.18 1007.69 1007.18 1006.68 1006.22 1005.84 1005.53 1005.31 1005.17 1005.09 1005.03 1004.98 1004.90 1004.80 1004.67 1004.54 1004.44 1004.40 1004.47 1004.67 1005.03 1005.53 1006.17 1006.92 1007.72
1009.52 1009.69 1009.81 1009.87 1009.89 1009.85 1009.79 1009.68 1009.53 1009.33 1009.07 1008.74 1008.33 1007.85 1007.32 1006.75 1006.19 1005.66 1005.19 1004.80 1004.51 1004.30 1004.14 1004.03 1003.92 1003.80 1003.67 1003.53 1003.39 1003.30 1003.30 1003.41 1003.66 1004.07 1004.64 1005.35 1006.16 1007.02
1009.36 1009.48 1009.55 1009.58 1009.57 1009.53 1009.47 1009.38 1009.26 1009.09 1008.84 1008.52 1008.11 1007.61 1007.05 1006.44 1005.81 1005.22 1004.67 1004.20 1003.82 1003.51 1003.27 1003.08 1002.90 1002.73 1002.56 1002.40 1002.27 1002.21 1002.25 1002.43 1002.76 1003.26 1003.91 1004.70 1005.57 1006.49
1009.28 1009.35 1009.39 1009.38 1009.35 1009.30 1009.24 1009.16 1009.05 1008.89 1008.66 1008.34 1007.93 1007.43 1006.85 1006.21 1005.55 1004.90 1004.29 1003.74 1003.27 1002.87 1002.54 1002.25 1001.99 1001.76 1001.55 1001.37 1001.26 1001.24 1001.34 1001.60 1002.03 1002.62 1003.37 1004.24 1005.18 1006.16
1009.21 1009.25 1009.25 1009.22 1009.16 1009.10 1009.03 1008.95 1008.84 1008.68 1008.46 1008.15 1007.75 1007.25 1006.68 1006.04 1005.36 1004.69 1004.04 1003.44 1002.90 1002.42 1001.99 1001.61 1001.27 1000.96 1000.71 1000.51 1000.41 1000.44 1000.61 1000.95 1001.48 1002.17 1003.01 1003.96 1004.97 1005.98
1009.08 1009.09 1009.06 1009.01 1008.94 1008.86 1008.78 1008.69 1008.57 1008.41 1008.19 1007.90 1007.52 1007.05 1006.50 1005.89 1005.23 1004.57 1003.91 1003.28 1002.69 1002.14 1001.64 1001.18 1000.76 1000.39 1000.09 999.88 999.79 999.85 1000.08 1000.51 1001.12 1001.90 1002.82 1003.84 1004.89 1005.94
1008.81 1008.80 1008.76 1008.69 1008.61 1008.52 1008.43 1008.33 1008.21 1008.05 1007.84 1007.56 1007.21 1006.78 1006.28 1005.72 1005.11 1004.49 1003.85 1003.23 1002.62 1002.04 1001.49 1000.96 1000.48 1000.06 999.72 999.49 999.41 999.49 999.77 1000.26 1000.94 1001.79 1002.76 1003.83 1004.91 1005.96
1008.39 1008.37 1008.33 1008.26 1008.17 1008.08 1007.98 1007.87 1007.74 1007.58 1007.38 1007.13 1006.82 1006.44 1006.00 1005.51 1004.97 1004.41 1003.83 1003.24 1002.65 1002.06 1001.49 1000.93 1000.42 999.96 999.59 999.35 999.26 999.37 999.68 1000.20 1000.92 1001.80 1002.81 1003.89 1004.97 1006.02
1007.84 1007.82 1007.77 1007.71 1007.63 1007.54 1007.44 1007.32 1007.19 1007.04 1006.85 1006.63 1006.36 1006.03 1005.66 1005.25 1004.79 1004.31 1003.80 1003.27 1002.72 1002.16 1001.59 1001.04 1000.51 1000.04 999.67 999.42 999.34 999.45 999.78 1000.31 1001.04 1001.93 1002.93 1004.00 1005.07 1006.09
1007.21 1007.20 1007.17 1007.12 1007.05 1006.96 1006.87 1006.75 1006.62 1006.47 1006.30 1006.10 1005.86 1005.58 1005.27 1004.93 1004.56 1004.15 1003.72 1003.26 1002.77 1002.26 1001.73 1001.21 1000.71 1000.26 999.90 999.66 999.59 999.71 1000.04 1000.57 1001.28 1002.15 1003.12 1004.16 1005.18 1006.16
1006.57 1006.57 1006.56 1006.53 1006.48 1006.41 1006.32 1006.21 1006.08 1005.94 1005.77 1005.58 1005.36 1005.12 1004.86 1004.57 1004.26 1003.93 1003.56 1003.17 1002.76 1002.31 1001.85 1001.39 1000.94 1000.54 1000.22 1000.02 999.98 1000.11 1000.43 1000.94 1001.63 1002.46 1003.39 1004.36 1005.34 1006.27
1005.99 1006.02 1006.03 1006.01 1005.98 1005.92 1005.84 1005.73 1005.60 1005.46 1005.29 1005.11 1004.90 1004.68 1004.44 1004.18 1003.91 1003.63 1003.32 1003.00 1002.65 1002.29 1001.91 1001.53 1001.16 1000.84 1000.59 1000.45 1000.44 1000.59 1000.91 1001.41 1002.06 1002.84 1003.70 1004.62 1005.53 1006.41
1005.52 1005.56 1005.59 1005.59 1005.57 1005.51 1005.44 1005.34 1005.21 1005.06 1004.89 1004.69 1004.48 1004.26 1004.02 1003.78 1003.52 1003.26 1003.00 1002.73 1002.45 1002.16 1001.88 1001.59 1001.33 1001.11 1000.94 1000.88 1000.93 1001.11 1001.44 1001.92 1002.53 1003.26 1004.06 1004.91 1005.76 1006.58
1005.15 1005.20 1005.24 1005.25 1005.23 1005.18 1005.11 1005.01 1004.88 1004.72 1004.54 1004.33 1004.11 1003.87 1003.62 1003.36 1003.10 1002.86 1002.61 1002.38 1002.16 1001.95 1001.75 1001.58 1001.42 1001.31 1001.25 1001.27 1001.39 1001.62 1001.97 1002.43 1003.01 1003.69 1004.43 1005.21 1006.00 1006.77
1004.86 1004.92 1004.95 1004.96 1004.94 1004.89 1004.81 1004.71 1004.57 1004.41 1004.22 1004.00 1003.76 1003.49 1003.22 1002.94 1002.67 1002.42 1002.19 1001.98 1001.81 1001.67 1001.56 1001.48 1001.44 1001.44 1001.49 1001.61 1001.80 1002.07 1002.44 1002.90 1003.45 1004.08 1004.77 1005.49 1006.23 1006.95
1004.61 1004.65 1004.67 1004.66 1004.63 1004.57 1004.49 1004.39 1004.26 1004.09 1003.90 1003.67 1003.41 1003.13 1002.83 1002.53 1002.24 1001.98 1001.75 1001.57 1001.43 1001.35 1001.32 1001.34 1001.40 1001.51 1001.66 1001.86 1002.12 1002.45 1002.83 1003.30 1003.83 1004.42 1005.06 1005.73 1006.41 1007.09
1004.33 1004.35 1004.34 1004.31 1004.27 1004.20 1004.12 1004.02 1003.89 1003.74 1003.54 1003.31 1003.05 1002.75 1002.44 1002.12 1001.82 1001.55 1001.33 1001.17 1001.07 1001.04 1001.08 1001.18 1001.33 1001.53 1001.77 1002.05 1002.37 1002.74 1003.15 1003.61 1004.12 1004.68 1005.28 1005.91 1006.56 1007.20
1004.00 1003.99 1003.95 1003.90 1003.83 1003.76 1003.68 1003.58 1003.47 1003.32 1003.14 1002.92 1002.66 1002.36 1002.05 1001.73 1001.42 1001.16 1000.95 1000.80 1000.74 1000.76 1000.86 1001.03 1001.25 1001.53 1001.84 1002.19 1002.56 1002.97 1003.40 1003.86 1004.36 1004.90 1005.47 1006.07 1006.68 1007.29
1003.59 1003.55 1003.48 1003.41 1003.33 1003.25 1003.17 1003.09 1002.98 1002.85 1002.69 1002.48 1002.23 1001.95 1001.64 1001.33 1001.04 1000.79 1000.60 1000.49 1000.46 1000.53 1000.68 1000.91 1001.20 1001.54 1001.91 1002.31 1002.73 1003.16 1003.61 1004.08 1004.58 1005.10 1005.65 1006.23 1006.81 1007.41
1003.12 1003.05 1002.96 1002.87 1002.78 1002.70 1002.63 1002.55 1002.46 1002.34 1002.19 1002.01 1001.77 1001.51 1001.22 1000.94 1000.67 1000.44 1000.28 1000.21 1000.23 1000.34 1000.54 1000.83 1001.17 1001.57 1001.99 1002.44 1002.89 1003.35 1003.82 1004.30 1004.80 1005.32 1005.86 1006.42 1006.99 1007.57
1002.61 1002.51 1002.41 1002.31 1002.22 1002.15 1002.07 1002.00 1001.92 1001.81 1001.67 1001.50 1001.28 1001.04 1000.77 1000.51 1000.28 1000.09 999.98 999.95 1000.01 1000.18 1000.44 1000.77 1001.17 1001.62 1002.09 1002.57 1003.06 1003.55 1004.04 1004.54 1005.05 1005.57 1006.11 1006.66 1007.23 1007.80
Thickness
5573 5575 5578 5582 5584 5586 5588 5589 5586 5586 5591 5594 5595 5598 5597 5595 5595 5593 5592 5591 5589 5587 5585 5583 5580 5577 5574 5570 5567 5563 5560 5556 5552 5548 5544 5540 5535 5531
5562 5565 5568 5571 5574 5576 5578 5580 5580 5581 5583 5588 5588 5589 5588 5587 5586 5585 5584 5584 5582 5580 5578 5576 5573 5570 5567 5564 5560 5557 5553 5550 5546 5542 5538 5534 5529 5524
5551 5554 5558 5560 5563 5566 5568 5569 5571 5571 5572 5578 5579 5579 5578 5578 5578 5577 5576 5576 5575 5574 5572 5569 5567 5564 5561 5558 5554 5551 5547 5543 5539 5535 5531 5527 5523 5518
5542 5544 5547 5549 5553 5556 5557 5558 5561 5562 5563 5565 5567 5568 5568 5569 5569 5568 5568 5568 5567 5566 5565 5563 5561 5558 5555 5552 5548 5544 5541 5537 5533 5530 5525 5521 5517 5512
5533 5535 5537 5539 5542 5546 5547 5549 5551 5554 5554 5555 5556 5557 5558 5558 5558 5559 5559 5559 5558 5558 5557 5556 5554 5552 5549 5546 5542 5538 5534 5531 5527 5524 5519 5515 5510 5506
5523 5526 5528 5531 5534 5537 5539 5541 5542 5543 5544 5545 5545 5546 5546 5547 5547 5548 5548 5549 5549 5549 5549 5548 5546 5544 5542 5539 5536 5532 5528 5525 5521 5518 5513 5509 5504 5500
5515 5517 5521 5524 5526 5529 5532 5533 5534 5534 5534 5535 5536 5537 5537 5537 5538 5539 5538 5539 5539 5539 5539 5539 5537 5535 5534 5532 5529 5526 5523 5519 5516 5513 5508 5503 5498 5494
5507 5510 5513 5516 5519 5523 5525 5526 5527 5527 5528 5529 5529 5530 5532 5532 5531 5530 5529 5527 5528 5531 5528 5529 5528 5527 5527 5525 5523 5520 5517 5514 5510 5507 5502 5497 5493 5488
5500 5503 5506 5510 5512 5514 5516 5518 5519 5521 5524 5526 5525 5527 5528 5528 5525 5522 5521 5521 5522 5521 5518 5519 5519 5519 5520 5519 5517 5514 5511 5508 5504 5500 5496 5491 5487 5482
5493 5496 5499 5502 5504 5506 5507 5509 5512 5515 5517 5519 5521 5523 5523 5522 5520 5519 5516 5512 5511 5511 5510 5509 5510 5510 5512 5511 5510 5507 5504 5500 5497 5493 5489 5485 5480 5476
5487 5490 5493 5496 5499 5499 5499 5501 5505 5508 5510 5512 5514 5515 5515 5514 5511 5508 5505 5502 5503 5503 5502 5501 5502 5501 5501 5502 5502 5500 5497 5493 5489 5486 5482 5478 5474 5469
5480 5484 5487 5490 5492 5492 5493 5494 5497 5500 5502 5503 5504 5505 5505 5505 5504 5504 5501 5498 5496 5496 5496 5493 5493 5490 5490 5492 5492 5490 5488 5485 5481 5478 5475 5471 5467 5462
5473 5477 5481 5483 5485 5486 5487 5488 5492 5493 5494 5495 5496 5497 5496 5496 5496 5496 5495 5494 5492 5492 5491 5488 5486 5483 5482 5480 5481 5481 5479 5476 5473 5471 5467 5464 5461 5456
5465 5469 5473 5476 5477 5478 5479 5482 5484 5485 5486 5486 5488 5489 5489 5489 5489 5488 5488 5487 5488 5489 5487 5485 5482 5480 5476 5472 5471 5470 5469 5468 5465 5462 5460 5457 5453 5449
5456 5460 5465 5468 5470 5471 5473 5475 5476 5478 5479 5479 5481 5482 5482 5482 5481 5480 5479 5479 5479 5480 5480 5480 5478 5475 5473 5469 5466 5462 5460 5459 5457 5455 5452 5449 5446 5442
5448 5452 5457 5459 5461 5463 5465 5467 5470 5472 5474 5474 5475 5474 5473 5473 5473 5473 5472 5472 5471 5471 5471 5471 5471 5469 5465 5463 5460 5456 5454 5451 5450 5447 5444 5441 5438 5435
5439 5443 5446 5450 5453 5456 5458 5460 5463 5464 5465 5465 5466 5466 5465 5465 5466 5465 5466 5466 5466 5466 5463 5460 5460 5460 5458 5456 5451 5450 5447 5444 5443 5440 5436 5433 5430 5428
5432 5435 5439 5443 5447 5450 5452 5454 5455 5457 5458 5458 5459 5459 5460 5460 5459 5459 5461 5462 5463 5462 5459 5455 5453 5451 5448 5445 5444 5443 5440 5437 5435 5432 5429 5425 5423 5421
5426 5430 5434 5437 5440 5443 5446 5448 5450 5451 5451 5451 5452 5453 5453 5454 5454 5454 5455 5456 5456 5456 5453 5451 5450 5449 5446 5442 5436 5435 5434 5431 5428 5425 5422 5419 5416 5414
5419 5422 5425 5429 5432 5436 5439 5441 5443 5444 5445 5445 5446 5446 5447 5448 5448 5450 5451 5452 5452 5449 5446 5444 5444 5445 5444 5440 5432 5427 5426 5424 5422 5419 5415 5411 5408 5406
5412 5414 5417 5420 5424 5428 5432 5434 5437 5439 5440 5441 5441 5441 5442 5443 5444 5445 5446 5446 5445 5443 5441 5440 5438 5437 5434 5430 5424 5419 5417 5416 5415 5413 5409 5404 5400 5397
5403 5406 5410 5413 5417 5421 5425 5428 5431 5433 5434 5435 5436 5437 5437 5439 5439 5440 5441 5440 5439 5438 5436 5432 5430 5429 5427 5425 5420 5415 5410 5408 5406 5405 5403 5401 5397 5393
5396 5399 5404 5408 5412 5415 5418 5422 5425 5427 5429 5430 5431 5432 5433 5434 5435 5435 5435 5434 5433 5431 5429 5426 5423 5422 5420 5417 5413 5408 5404 5401 5398 5396 5394 5393 5392 5389